Content
SEND FEEDBACK

Daily
Averages
Monthly
Summary
United States of America

WILMINGTON, NORTH CAROLINA


Home > North America > United States > North Carolina
Elevation: 72 feet     Latitude: 34 16N     Longitude: 077 54W

WEATHER
 
SELECT A DAY
Number of Records: 208,565;   Date Range: 1/1/95 - 7/7/14
 
SHARE

PRINT THIS DATA

[ ← Previous Day ]
WEATHER ALMANAC - JULY 17, 2013
[ Next Day → ]
[ °C ]   °F
We're sorry. There is no daily almanac available for Wilmington, North Carolina on July 17, 2013.
WEATHER BY HOUR - JULY 17, 2013
[ °C ]   °F
Local TimeTemperatureDewpointHumidityBarometerVisibilityWind DirectionWind SpeedGust SpeedPrecipitationEventsConditions
1:53 AM78.1 °F73.0 °F84 %30.19 in10.0 miWSW (250°)6.9 mph0.01 inClear
2:53 AM77.0 °F72.0 °F84 %30.19 in10.0 miWSW (240°)5.8 mphClear
3:53 AM77.0 °F72.0 °F84 %30.17 in10.0 miWSW (250°)4.6 mphClear
4:53 AM75.9 °F72.0 °F87 %30.17 in10.0 miWest (280°)5.8 mphClear
5:53 AM75.0 °F72.0 °F90 %30.18 in10.0 miCalmClear
6:53 AM75.9 °F72.0 °F87 %30.19 in10.0 miCalmMostly Cloudy
7:53 AM78.1 °F73.0 °F84 %30.19 in10.0 miCalmClear
8:53 AM81.0 °F73.0 °F77 %30.21 in10.0 miNNW (330°)13.8 mph20.7 mphMostly Cloudy
9:53 AM82.9 °F71.1 °F67 %30.20 in10.0 miNorth (350°)11.5 mphPartly Cloudy
10:53 AM82.9 °F71.1 °F67 %30.20 in10.0 miNorth0.00 inRainLight Rain
11:53 AM87.1 °F73.9 °F65 %30.19 in10.0 miVariable4.6 mphClear
12:53 PM88.0 °F75.9 °F67 %30.18 in10.0 miNorth (360°)3.5 mphClear
1:53 PM86.0 °F75.0 °F70 %30.17 in10.0 miESE (120°)4.6 mphMostly Cloudy
2:53 PM88.0 °F71.1 °F57 %30.16 in10.0 miESE (120°)6.9 mphScattered Clouds
3:53 PM87.1 °F70.0 °F57 %30.14 in10.0 miEast (100°)8.1 mphClear
4:53 PM84.9 °F72.0 °F65 %30.13 in10.0 miESE (120°)5.8 mphClear
5:53 PM84.9 °F70.0 °F61 %30.12 in10.0 miSE (130°)5.8 mphClear
6:53 PM84.9 °F68.0 °F57 %30.13 in10.0 miVariable4.6 mphClear
7:53 PM82.9 °F70.0 °F65 %30.13 in10.0 miESE (120°)4.6 mphClear
8:53 PM81.0 °F71.1 °F72 %30.14 in10.0 miCalm0.01 inClear
9:53 PM77.0 °F72.0 °F84 %30.14 in10.0 miCalmClear
10:53 PM77.0 °F73.0 °F88 %30.15 in9.0 miCalmClear
11:53 PM75.0 °F72.0 °F90 %30.14 in9.0 miCalmClear
Hourly data recorded from KILM, located miles away from Wilmington, North Carolina







STORIES FROM OUR PARTNERS